This demonstration page uses our WeatherBlox Daily Observations layout. Learn more.

Left ArrowRight Arrow

38.20091, -84.87328

Hourly Observations for January 24, 2016

Temp ( °F °C ) Dew Point ( °F °C ) Humidity (%) Winds ( mph kmh ) Pressure ( in mb ) Visibility ( mi km ) Precip ( " mm )
12:53 am 00:53 Clear 10 -12.2 6 -14.4 84 84 Calm 30.16 1021 7 11 0.00 0.00
1:53 am 01:53 Clear 8 -13.3 2 -16.7 76 76 Calm 30.15 1021 7 11 0.00 0.00
2:53 am 02:53 Clear with Mist and Fog 8 -13.3 5 -15 87 87 WSW 3 6 30.16 1021 6 10 0.00 0.00
3:53 am 03:53 Clear 5 -15 1 -17.2 83 83 Calm 30.18 1022 8 13 0.00 0.00
4:53 am 04:53 Clear 5 -15 1 -17.2 83 83 Calm 30.19 1022 9 14 0.00 0.00
5:53 am 05:53 Clear 5 -15 0 -17.8 79 79 Calm 30.20 1023 8 13 0.00 0.00
6:53 am 06:53 Clear 4 -15.6 -1 -18.3 80 80 Calm 30.21 1023 8 13 0.00 0.00
7:53 am 07:53 Hazy 4 -15.6 -1 -18.3 80 80 Calm 30.23 1024 6 10 0.00 0.00
8:53 am 08:53 Sunny with Mist and Fog 10 -12.2 6 -14.4 84 84 ESE 3 6 30.24 1024 5 8 0.00 0.00
9:53 am 09:53 Sunny with Mist and Fog 17 -8.3 14 -10 88 88 SSW 3 6 30.24 1024 6 10 0.00 0.00
10:53 am 10:53 Sunny 22 -5.6 16 -8.9 78 78 S 5 7 30.24 1024 9 14 0.00 0.00
11:53 am 11:53 Sunny 28 -2.2 17 -8.3 63 63 SW 10 17 30.21 1023 10 16 0.00 0.00
12:53 pm 12:53 Sunny 30 -1.1 18 -7.8 61 61 SW 10 17 30.18 1022 10 16 0.00 0.00
1:53 pm 13:53 Sunny 32 0 18 -7.8 56 56 SSW 8 13 30.16 1021 10 16 0.00 0.00
2:53 pm 14:53 Sunny 33 0.6 18 -7.8 54 54 SW 8 13 30.13 1020 10 16 0.00 0.00
3:53 pm 15:53 Sunny 34 1.1 18 -7.8 52 52 SSW 9 15 30.15 1021 10 16 0.00 0.00
4:53 pm 16:53 Sunny 34 1.1 17 -8.3 50 50 S 9 15 30.12 1020 10 16 0.00 0.00
5:53 pm 17:53 Clear 31 -0.6 16 -8.9 54 54 SW 5 7 30.14 1021 10 16 0.00 0.00
6:53 pm 18:53 Clear 30 -1.1 16 -8.9 56 56 S 3 6 30.13 1020 10 16 0.00 0.00
7:53 pm 19:53 Clear 27 -2.8 17 -8.3 66 66 SSW 3 6 30.14 1021 10 16 0.00 0.00
8:53 pm 20:53 Clear 27 -2.8 18 -7.8 69 69 S 6 9 30.13 1020 10 16 0.00 0.00
9:53 pm 21:53 Clear 26 -3.3 18 -7.8 71 71 SE 3 6 30.11 1020 10 16 0.00 0.00
10:53 pm 22:53 Clear 25 -3.9 18 -7.8 75 75 SSE 6 9 30.11 1020 10 16 0.00 0.00
11:53 pm 23:53 Clear 25 -3.9 19 -7.2 78 78 SSE 3 6 30.09 1019 10 16 0.00 0.00

Powered by AerisWeather